| time (UTC) | temp C | wind direction | speed KPH | gust KPH | rain 1hr cm | rain 24hr cm | rain mn cm | humidity % | barometer mb |
| 20260507150004 | 11 | 201 | 8.0 | 19.3 | 0.00 | 0.05 | 0.00 | 54 | 898.9 |
| 20260507145004 | 11 | 183 | 9.7 | 14.5 | 0.00 | 0.05 | 0.00 | 54 | 898.9 |
| 20260507143004 | 10 | 190 | 4.8 | 11.3 | 0.00 | 0.05 | 0.00 | 58 | 899.0 |
| 20260507142004 | 9 | 259 | 4.8 | 11.3 | 0.00 | 0.05 | 0.00 | 60 | 899.1 |
| 20260507141004 | 9 | 314 | 4.8 | 12.9 | 0.00 | 0.05 | 0.00 | 63 | 899.1 |
| 20260507140004 | 8 | 306 | 9.7 | 14.5 | 0.00 | 0.05 | 0.00 | 66 | 899.0 |
| 20260507135004 | 8 | 310 | 8.0 | 12.9 | 0.00 | 0.05 | 0.00 | 69 | 899.0 |
| 20260507134003 | 7 | 310 | 9.7 | 14.5 | 0.00 | 0.05 | 0.00 | 71 | 899.0 |
| 20260507133004 | 7 | 315 | 8.0 | 14.5 | 0.00 | 0.05 | 0.00 | 73 | 899.1 |
| 20260507131004 | 5 | 319 | 11.3 | 16.1 | 0.00 | 0.05 | 0.00 | 76 | 899.0 |
| 20260507130004 | 5 | 315 | 9.7 | 12.9 | 0.00 | 0.05 | 0.00 | 77 | 899.0 |
| 20260507125004 | 4 | 315 | 8.0 | 12.9 | 0.00 | 0.05 | 0.00 | 76 | 898.9 |
| 20260507124004 | 3 | 319 | 6.4 | 11.3 | 0.00 | 0.05 | 0.00 | 74 | 898.8 |
| 20260507123004 | 3 | 314 | 4.8 | 8.0 | 0.00 | 0.05 | 0.00 | 75 | 898.8 |
| 20260507122005 | 3 | 268 | 4.8 | 9.7 | 0.00 | 0.05 | 0.00 | 76 | 898.7 |
| 20260507121004 | 3 | 284 | 4.8 | 9.7 | 0.00 | 0.05 | 0.00 | 76 | 898.6 |
| 20260507120004 | 3 | 287 | 3.2 | 11.3 | 0.00 | 0.05 | 0.00 | 75 | 898.6 |
| 20260507115004 | 3 | 297 | 8.0 | 11.3 | 0.00 | 0.05 | 0.00 | 75 | 898.6 |
| 20260507112004 | 3 | 308 | 4.8 | 9.7 | 0.00 | 0.05 | 0.00 | 74 | 898.5 |
| 20260507111004 | 3 | 313 | 4.8 | 9.7 | 0.00 | 0.05 | 0.00 | 75 | 898.4 |
| 20260507110004 | 3 | 298 | 3.2 | 4.8 | 0.00 | 0.05 | 0.00 | 74 | 898.5 |
| 20260507105004 | 3 | 316 | 4.8 | 9.7 | 0.00 | 0.05 | 0.00 | 74 | 898.6 |
| 20260507104004 | 4 | 324 | 4.8 | 9.7 | 0.00 | 0.05 | 0.00 | 73 | 898.5 |
| 20260507103004 | 4 | 328 | 4.8 | 8.0 | 0.00 | 0.05 | 0.00 | 73 | 898.5 |
| 20260507102006 | 5 | 328 | 4.8 | 8.0 | 0.00 | 0.05 | 0.00 | 73 | 898.6 |
| 20260507100005 | 6 | 358 | 1.6 | 3.2 | 0.00 | 0.05 | 0.00 | 68 | 898.5 |
| 20260507095004 | 6 | 31 | 3.2 | 4.8 | 0.00 | 0.05 | 0.00 | 69 | 898.4 |
| 20260507094004 | 6 | 34 | 4.8 | 4.8 | 0.00 | 0.05 | 0.00 | 68 | 898.4 |
| 20260507093004 | 5 | 18 | 4.8 | 11.3 | 0.00 | 0.05 | 0.00 | 70 | 898.4 |
| 20260507091004 | 6 | 116 | 8.0 | 9.7 | 0.00 | 0.05 | 0.00 | 71 | 898.1 |
| 20260507090004 | 6 | 141 | 4.8 | 14.5 | 0.00 | 0.05 | 0.00 | 70 | 898.2 |
| 20260507085004 | 6 | 137 | 9.7 | 14.5 | 0.00 | 0.05 | 0.00 | 68 | 898.0 |
| 20260507084003 | 7 | 149 | 11.3 | 12.9 | 0.00 | 0.05 | 0.00 | 67 | 898.0 |
| 20260507082004 | 7 | 107 | 1.6 | 3.2 | 0.00 | 0.05 | 0.00 | 63 | 898.7 |
| 20260507081003 | 8 | 58 | 1.6 | 4.8 | 0.00 | 0.05 | 0.00 | 63 | 898.8 |
| 20260507080004 | 8 | 14 | 4.8 | 9.7 | 0.00 | 0.05 | 0.00 | 64 | 899.1 |
| 20260507075004 | 7 | 14 | 4.8 | 9.7 | 0.00 | 0.05 | 0.00 | 65 | 899.2 |
| 20260507073004 | 7 | 24 | 6.4 | 9.7 | 0.00 | 0.05 | 0.00 | 67 | 899.3 |
| 20260507072004 | 7 | 26 | 8.0 | 9.7 | 0.00 | 0.05 | 0.00 | 67 | 899.3 |
| 20260507071004 | 6 | 23 | 4.8 | 9.7 | 0.00 | 0.05 | 0.00 | 68 | 899.2 |
| 20260507070006 | 6 | 353 | 8.0 | 11.3 | 0.00 | 0.05 | 0.00 | 68 | 899.3 |
| 20260507065003 | 6 | 0 | 8.0 | 11.3 | 0.00 | 0.05 | 0.00 | 68 | 899.2 |
| 20260507064004 | 6 | 353 | 8.0 | 11.3 | 0.00 | 0.05 | 0.00 | 68 | 899.3 |
| 20260507062004 | 7 | 13 | 12.9 | 16.1 | 0.00 | 0.05 | 0.00 | 66 | 898.5 |
| 20260507060004 | 7 | 17 | 12.9 | 22.5 | 0.00 | 0.05 | 0.00 | 66 | 898.7 |
| 20260507055004 | 8 | 20 | 17.7 | 24.1 | 0.00 | 0.05 | 0.00 | 64 | 898.3 |
| 20260507054004 | 8 | 21 | 19.3 | 24.1 | 0.00 | 0.05 | 0.00 | 65 | 898.1 |
| 20260507053004 | 8 | 21 | 19.3 | 32.2 | 0.00 | 0.05 | 0.00 | 66 | 897.9 |
| 20260507052006 | 8 | 33 | 25.7 | 33.8 | 0.00 | 0.05 | 0.00 | 68 | 898.0 |
| 20260507051006 | 8 | 39 | 25.7 | 32.2 | 0.00 | 0.05 | 0.00 | 66 | 898.0 |
| 20260507050006 | 8 | 39 | 25.7 | 33.8 | 0.03 | 0.05 | 0.00 | 67 | 897.6 |
| 20260507045006 | 9 | 39 | 25.7 | 37.0 | 0.05 | 0.05 | 0.05 | 67 | 897.7 |
| 20260507044006 | 9 | 39 | 27.4 | 35.4 | 0.05 | 0.05 | 0.05 | 67 | 897.5 |
| 20260507043005 | 10 | 32 | 27.4 | 35.4 | 0.05 | 0.05 | 0.05 | 66 | 897.3 |
| 20260507042005 | 10 | 30 | 22.5 | 32.2 | 0.05 | 0.05 | 0.05 | 65 | 897.4 |
| 20260507041005 | 12 | 37 | 20.9 | 27.4 | 0.05 | 0.05 | 0.05 | 60 | 897.2 |
| 20260507035005 | 12 | 41 | 24.1 | 32.2 | 0.00 | 0.00 | 0.00 | 52 | 897.3 |
| 20260507034005 | 12 | 41 | 22.5 | 25.7 | 0.00 | 0.00 | 0.00 | 49 | 896.9 |
| 20260507033005 | 12 | 37 | 22.5 | 25.7 | 0.00 | 0.00 | 0.00 | 48 | 897.1 |
| 20260507032005 | 12 | 37 | 22.5 | 25.7 | 0.00 | 0.00 | 0.00 | 48 | 896.8 |
| 20260507031006 | 12 | 39 | 20.9 | 25.7 | 0.00 | 0.00 | 0.00 | 47 | 896.3 |
| 20260507030005 | 12 | 40 | 17.7 | 25.7 | 0.00 | 0.00 | 0.00 | 47 | 896.2 |
| 20260507025006 | 12 | 40 | 19.3 | 22.5 | 0.00 | 0.00 | 0.00 | 47 | 895.7 |
| 20260507024005 | 12 | 52 | 11.3 | 16.1 | 0.00 | 0.00 | 0.00 | 47 | 895.5 |
| 20260507023005 | 13 | 55 | 11.3 | 22.5 | 0.00 | 0.00 | 0.00 | 47 | 895.5 |
| 20260507022006 | 13 | 61 | 12.9 | 20.9 | 0.00 | 0.00 | 0.00 | 47 | 895.0 |
| 20260507021005 | 13 | 55 | 11.3 | 20.9 | 0.00 | 0.00 | 0.00 | 46 | 894.7 |
| 20260507020006 | 13 | 49 | 11.3 | 25.7 | 0.00 | 0.00 | 0.00 | 46 | 894.5 |
| 20260507015005 | 13 | 77 | 14.5 | 24.1 | 0.00 | 0.00 | 0.00 | 45 | 894.0 |
| 20260507013006 | 14 | 85 | 16.1 | 29.0 | 0.00 | 0.00 | 0.00 | 44 | 893.5 |
| 20260507012006 | 14 | 92 | 16.1 | 22.5 | 0.00 | 0.00 | 0.00 | 44 | 893.5 |
| 20260507010005 | 15 | 107 | 20.9 | 33.8 | 0.00 | 0.00 | 0.00 | 43 | 893.1 |
| 20260507005005 | 15 | 104 | 16.1 | 29.0 | 0.00 | 0.00 | 0.00 | 43 | 893.0 |
| 20260507004005 | 16 | 85 | 16.1 | 33.8 | 0.00 | 0.00 | 0.00 | 41 | 892.6 |
| 20260507003005 | 16 | 88 | 20.9 | 33.8 | 0.00 | 0.00 | 0.00 | 42 | 892.8 |
| 20260507002006 | 16 | 92 | 16.1 | 33.8 | 0.00 | 0.00 | 0.00 | 41 | 892.8 |
| 20260507001006 | 16 | 73 | 20.9 | 37.0 | 0.00 | 0.00 | 0.00 | 40 | 892.7 |
| 20260507000006 | 16 | 81 | 20.9 | 35.4 | 0.00 | 0.00 | 0.00 | 40 | 892.6 |
| 20260506235005 | 17 | 61 | 17.7 | 33.8 | 0.00 | 0.00 | 0.00 | 40 | 892.5 |
| 20260506232005 | 17 | 90 | 20.9 | 35.4 | 0.00 | 0.00 | 0.00 | 38 | 892.5 |
| 20260506231005 | 17 | 89 | 14.5 | 33.8 | 0.00 | 0.00 | 0.00 | 38 | 892.6 |
| 20260506230005 | 18 | 83 | 20.9 | 33.8 | 0.00 | 0.00 | 0.00 | 37 | 892.4 |
| 20260506225005 | 18 | 93 | 17.7 | 37.0 | 0.00 | 0.00 | 0.00 | 37 | 892.4 |
| 20260506224005 | 18 | 111 | 25.7 | 37.0 | 0.00 | 0.00 | 0.00 | 36 | 892.0 |
| 20260506223005 | 18 | 104 | 19.3 | 37.0 | 0.00 | 0.00 | 0.00 | 36 | 892.2 |
| 20260506222005 | 18 | 96 | 14.5 | 27.4 | 0.00 | 0.00 | 0.00 | 37 | 892.3 |
| 20260506221005 | 18 | 110 | 16.1 | 29.0 | 0.00 | 0.00 | 0.00 | 36 | 892.4 |
| 20260506220005 | 17 | 110 | 16.1 | 27.4 | 0.00 | 0.00 | 0.00 | 37 | 892.5 |
| 20260506215006 | 17 | 98 | 12.9 | 32.2 | 0.00 | 0.00 | 0.00 | 37 | 892.5 |
| 20260506214005 | 17 | 137 | 19.3 | 32.2 | 0.00 | 0.00 | 0.00 | 38 | 892.6 |
| 20260506213005 | 18 | 118 | 16.1 | 27.4 | 0.00 | 0.00 | 0.00 | 37 | 892.6 |
| 20260506211005 | 17 | 119 | 16.1 | 29.0 | 0.00 | 0.00 | 0.00 | 38 | 892.6 |
| 20260506210005 | 17 | 139 | 9.7 | 22.5 | 0.00 | 0.00 | 0.00 | 38 | 892.8 |
| 20260506204005 | 17 | 81 | 14.5 | 25.7 | 0.00 | 0.00 | 0.00 | 37 | 893.0 |
| 20260506203005 | 17 | 130 | 19.3 | 35.4 | 0.00 | 0.00 | 0.00 | 39 | 893.1 |
| 20260506202006 | 16 | 62 | 9.7 | 29.0 | 0.00 | 0.00 | 0.00 | 39 | 893.1 |
| 20260506201005 | 16 | 90 | 14.5 | 33.8 | 0.00 | 0.00 | 0.00 | 40 | 893.2 |
| 20260506200005 | 17 | 118 | 14.5 | 22.5 | 0.00 | 0.00 | 0.00 | 39 | 893.2 |
| 20260506195005 | 16 | 161 | 12.9 | 27.4 | 0.00 | 0.00 | 0.00 | 40 | 893.5 |
| 20260506194005 | 17 | 83 | 14.5 | 22.5 | 0.00 | 0.00 | 0.00 | 40 | 893.4 |
| 20260506191005 | 15 | 129 | 12.9 | 24.1 | 0.00 | 0.00 | 0.00 | 42 | 893.8 |
| 20260506190006 | 16 | 92 | 14.5 | 24.1 | 0.00 | 0.00 | 0.00 | 42 | 893.6 |
| 20260506185005 | 15 | 146 | 11.3 | 29.0 | 0.00 | 0.00 | 0.00 | 43 | 893.8 |
| 20260506184005 | 15 | 108 | 11.3 | 32.2 | 0.00 | 0.00 | 0.00 | 44 | 893.9 |
| 20260506183005 | 15 | 189 | 8.0 | 19.3 | 0.00 | 0.00 | 0.00 | 44 | 894.1 |
| 20260506181005 | 14 | 137 | 16.1 | 25.7 | 0.00 | 0.00 | 0.00 | 47 | 894.3 |
| 20260506180006 | 14 | 78 | 9.7 | 27.4 | 0.00 | 0.00 | 0.00 | 46 | 894.3 |
| 20260506175005 | 13 | 54 | 6.4 | 22.5 | 0.00 | 0.00 | 0.00 | 48 | 894.4 |
| 20260506174005 | 13 | 119 | 9.7 | 24.1 | 0.00 | 0.00 | 0.00 | 49 | 894.6 |
| 20260506173005 | 13 | 107 | 12.9 | 24.1 | 0.00 | 0.00 | 0.00 | 50 | 894.7 |
| 20260506172005 | 13 | 101 | 11.3 | 24.1 | 0.00 | 0.00 | 0.00 | 48 | 894.8 |
| 20260506171005 | 12 | 102 | 14.5 | 32.2 | 0.00 | 0.00 | 0.00 | 50 | 894.5 |
| 20260506170005 | 12 | 109 | 9.7 | 27.4 | 0.00 | 0.00 | 0.00 | 50 | 894.6 |
| 20260506165005 | 12 | 82 | 14.5 | 27.4 | 0.00 | 0.00 | 0.00 | 51 | 894.6 |
| 20260506164005 | 11 | 49 | 11.3 | 22.5 | 0.00 | 0.00 | 0.00 | 53 | 894.6 |
| 20260506163005 | 11 | 119 | 14.5 | 24.1 | 0.00 | 0.00 | 0.00 | 54 | 894.6 |
| 20260506162005 | 11 | 138 | 16.1 | 24.1 | 0.00 | 0.00 | 0.00 | 55 | 894.5 |
| 20260506161005 | 11 | 119 | 14.5 | 29.0 | 0.00 | 0.00 | 0.00 | 56 | 894.4 |
| 20260506160005 | 10 | 105 | 9.7 | 24.1 | 0.00 | 0.00 | 0.00 | 56 | 894.4 |
| 20260506155005 | 10 | 98 | 9.7 | 19.3 | 0.00 | 0.00 | 0.00 | 56 | 894.5 |
| 20260506154005 | 10 | 88 | 12.9 | 24.1 | 0.00 | 0.00 | 0.00 | 57 | 894.4 |
| 20260506153005 | 10 | 86 | 14.5 | 25.7 | 0.00 | 0.00 | 0.00 | 57 | 894.0 |
| 20260506152005 | 9 | 127 | 19.3 | 25.7 | 0.00 | 0.00 | 0.00 | 59 | 894.0 |
| 20260506151005 | 9 | 121 | 14.5 | 24.1 | 0.00 | 0.00 | 0.00 | 59 | 894.0 |